User: anonymous   Login
Location: Dunedin
(45.8670°S, 170.5000°E)
Time: 16:09:57
(UTC+13:00)
Language:

Cosmos 2263 Rocket - Orbit

View from above orbital plane
View from above orbital plane
View from above satellite
View from above satellite

Ground track
Ground track

The orbit data is extracted from the following two-line orbital elements,

1 22803U 93059B   19295.48583310 -.00000080  00000-0 -15931-4 0  9992
2 22803  70.9900 242.8575 0016594 167.6530 192.5003 14.16814176349711
Epoch (UTC): 22 October 2019 11:39:35
Eccentricity: 0.0016594
inclination: 70.9900°
perigee height: 824 km
apogee height: 848 km
right ascension of ascending node: 242.8575°
argument of perigee: 167.6530°
revolutions per day: 14.16814176
mean anomaly at epoch: 192.5003°
orbit number at epoch: 34971

The dashed part of the orbit path shows where the satellite is in the earth's shadow,  

DLR